, CA

(GMT )
Point Mugu

Weather History for KNTD - January, 2013

Change the Weather History Date:

Tuesday, January 22, 2013

  Actual Average Record
Temperature  
Mean Temperature 66 °F -  
Max Temperature 79 °F 61 °F 79 °F (2013)
Min Temperature 53 °F 44 °F 36 °F (2007)
Cooling Degree Days 1    
Growing Degree Days 16 (Base 50)    
Moisture  
Dew Point 39 °F    
Average Humidity 47    
Maximum Humidity 86    
Minimum Humidity 10    
Precipitation  
Precipitation 0.00 in - - ()
Sea Level Pressure  
Sea Level Pressure 30.06 in    
Wind  
Wind Speed 10 mph (ENE)    
Max Wind Speed 16 mph    
Max Gust Speed 21 mph    
Visibility 7 miles    
Events      
Averages and records for this station are not official NWS values.
T = Trace of Precipitation, MM = Missing Value Source: NWS Daily Summary

Daily Weather History Graph

Daily Weather History Graph

Search for Another Location

Airport or City:

Trip Planner

Search our weather history database for the weather conditions in past years. The results will help you decide how hot, cold, wet, or windy it might be!

Date:

Astronomy

Jan. 22, 2013 Rise Set
Actual Time 6:59 AM PST 5:17 PM PST
Civil Twilight 6:32 AM PST 5:44 PM PST
Nautical Twilight 6:02 AM PST 6:14 PM PST
Astronomical Twilight 5:32 AM PST 6:44 PM PST
Moon 1:45 PM PST (1/22) 3:23 AM PST (1/22)
Length of Visible Light 11h 11m
Length of Day
10h 17m
Waxing Gibbous, 83% of the Moon is Illuminated
Jan 22
Waxing Gibbous
Jan 26
Full
Feb 3
Last Quarter
Feb 9
New
Feb 17
First Quarter

Hourly Weather History & Observations

Time (PST) Temp. Dew Point Humidity Pressure Visibility Wind Dir Wind Speed Gust Speed Precip Events Conditions
12:54 AM 66.0 °F 61.0 °F 84% 30.06 in - ENE 12.7 mph 20.7 mph N/A   Clear
1:54 AM 66.0 °F 61.0 °F 84% 30.06 in - ENE 16.1 mph - N/A   Clear
2:54 AM 63.0 °F 57.9 °F 84% 30.06 in - NE 8.1 mph - N/A   Clear
3:54 AM 60.1 °F 55.9 °F 86% 30.05 in - NE 8.1 mph - N/A   Clear
4:54 AM 66.0 °F 61.0 °F 84% 30.05 in - ENE 16.1 mph 20.7 mph N/A   Clear
5:54 AM 64.9 °F 23.0 °F 20% 30.06 in 7.0 mi ENE 15.0 mph 20.7 mph N/A   Scattered Clouds
6:54 AM 64.0 °F 14.0 °F 14% 30.07 in 7.0 mi ENE 11.5 mph 20.7 mph N/A   Scattered Clouds
7:54 AM 66.0 °F 15.3 °F 14% 30.08 in 7.0 mi ENE 9.2 mph 19.6 mph N/A   Scattered Clouds
8:54 AM 70.0 °F 18.5 °F 14% 30.08 in 7.0 mi ENE 8.1 mph - N/A   Scattered Clouds
9:54 AM 75.0 °F 19.4 °F 12% 30.09 in 7.0 mi ENE 10.4 mph - N/A   Scattered Clouds
10:54 AM 79.0 °F 17.6 °F 10% 30.09 in 7.0 mi ENE 12.7 mph - N/A   Mostly Cloudy
11:54 AM 79.0 °F 41.9 °F 27% 30.05 in 7.0 mi South 8.1 mph - N/A   Mostly Cloudy
12:54 PM 69.1 °F 41.7 °F 37% 30.04 in 7.0 mi South 11.5 mph - N/A   Mostly Cloudy
1:54 PM 68.0 °F 44.6 °F 43% 30.03 in 7.0 mi South 13.8 mph - N/A   Mostly Cloudy
2:54 PM 66.9 °F 40.8 °F 39% 30.01 in 7.0 mi SSE 8.1 mph 18.4 mph N/A   Mostly Cloudy
3:54 PM 62.4 °F 48.9 °F 61% 30.04 in 7.0 mi WSW 4.6 mph - N/A   Mostly Cloudy
4:54 PM 62.1 °F 46.6 °F 57% 30.04 in 7.0 mi North 3.5 mph - N/A   Mostly Cloudy
5:54 PM 61.2 °F 43.2 °F 52% 30.05 in 7.0 mi ENE 6.9 mph - N/A   Mostly Cloudy
6:54 PM 57.9 °F 27.5 °F 31% 30.05 in 7.0 mi ENE 6.9 mph - N/A   Mostly Cloudy
7:54 PM 55.9 °F 36.0 °F 47% 30.05 in 7.0 mi North 4.6 mph - N/A   Mostly Cloudy
8:54 PM 53.1 °F 35.1 °F 50% 30.06 in 7.0 mi NNW 3.5 mph - N/A   Mostly Cloudy
9:54 PM 54.0 °F 32.7 °F 45% 30.06 in 7.0 mi NNE 4.6 mph - N/A   Mostly Cloudy
10:54 PM 54.0 °F 32.5 °F 44% 30.06 in 7.0 mi Calm Calm - N/A   Mostly Cloudy
11:54 PM 54.0 °F 48.0 °F 80% 30.06 in - Calm Calm - N/A   Clear